World > North America > United States > Ohio

Georges Run, Ohio Regional Weather

Lat: 40.30N, Lon: 80.63W
Wx Zone: OHZ050Web Search

If you are on your PC, you can easily pass this page to your phone by scanning the QR Code near the bottom with your camera.

Feedback


°F Click to change Georges Run hourly weather to Imperial units.Click to change Georges Run hourly weather to Metric units. °C
Georges Run Weather Map
UTC Time: 5/15/2021, 05:41
Your Time:

Georges Run, OH Regional Weather

Expires:202105150600;;134847
ASUS41 KCLE 150512
RWRCLE
OHIO REGIONAL WEATHER ROUNDUP
NATIONAL WEATHER SERVICE WILMINGTON, OH
100 AM EDT SAT MAY 15 2021

NOTE: "FAIR" INDICATES FEW OR NO CLOUDS BELOW 12,000 FEET WITH NO
SIGNIFICANT WEATHER AND/OR OBSTRUCTIONS TO VISIBILITY.


OHZ036-037-039>041-045>050-054>059-063>069-073>076-082>088-150600-
  CENTRAL AND SOUTHEAST OHIO
  
CITY           SKY/WX    TMP DP  RH WIND       PRES   REMARKS
COLUMBUS       MOCLDY    49  39  68 CALM      30.27S                  
OSU AIRPORT    FAIR      50  36  58 CALM      30.27S                  
BOLTON FIELD   FAIR      46  39  75 CALM      30.28S                  
RICKENBACK AFB MOCLDY    49  42  76 CALM      30.27S                  
NEWARK         FAIR      42  40  92 CALM      30.27S                  
MARION         FAIR      46  38  73 CALM      30.27S                  
LANCASTER      MOCLDY    43  40  89 CALM      30.28S                  
ZANESVILLE     CLOUDY    46  41  82 CALM      30.27S                  
NEW PHILLY     FAIR      44  40  85 CALM      30.28S                  
$$
  

SKY/WX - Weather  TMP - Temperature  DP - Dew Point  RH - Relative Humidity
WIND - Wind Direction/Speed PRES - Barometric Pressure VSB - Visibility
WCI - Wind Chill Index E13G22 Wind - East Wind 13 mph/Gusts of 22 mph